TimeCDT,TemperatureF,Dew PointF,Humidity,Sea Level PressureIn,VisibilityMPH,Wind Direction,Wind SpeedMPH,Gust SpeedMPH,PrecipitationIn,Events,Conditions,WindDirDegrees,DateUTC
12:15 AM,53.6,37.4,54,30.01,10.0,NNW,6.9,-,N/A,,Mostly Cloudy,340,2013-05-09 05:15:00
12:35 AM,51.8,37.4,58,30.01,10.0,Calm,Calm,-,N/A,,Scattered Clouds,0,2013-05-09 05:35:00
12:55 AM,51.8,37.4,58,30.01,10.0,North,4.6,-,N/A,,Clear,10,2013-05-09 05:55:00
1:35 AM,51.8,37.4,58,30.01,10.0,NNE,4.6,-,N/A,,Mostly Cloudy,30,2013-05-09 06:35:00
2:35 AM,51.8,37.4,58,29.99,10.0,NNE,3.5,-,N/A,,Mostly Cloudy,20,2013-05-09 07:35:00
3:35 AM,51.8,37.4,58,29.99,10.0,North,5.8,-,N/A,,Overcast,360,2013-05-09 08:35:00
4:15 AM,51.8,39.2,62,29.99,10.0,ENE,5.8,-,N/A,,Light Drizzle,70,2013-05-09 09:15:00
4:35 AM,51.8,39.2,62,29.99,10.0,NNW,3.5,-,N/A,Rain,Light Rain,330,2013-05-09 09:35:00
5:15 AM,50.0,41.0,71,29.98,10.0,NE,6.9,-,N/A,,Light Drizzle,50,2013-05-09 10:15:00
7:15 AM,51.8,41.0,67,29.99,10.0,NE,12.7,17.3,N/A,,Mostly Cloudy,40,2013-05-09 12:15:00
9:15 AM,51.8,41.0,67,30.04,10.0,North,6.9,-,N/A,,Overcast,10,2013-05-09 14:15:00
9:35 AM,51.8,41.0,67,30.04,10.0,NNE,9.2,-,N/A,,Overcast,20,2013-05-09 14:35:00
9:55 AM,51.8,41.0,67,30.05,10.0,NNE,10.4,-,N/A,,Overcast,30,2013-05-09 14:55:00
10:15 AM,51.8,41.0,67,30.05,10.0,NNE,9.2,-,N/A,,Overcast,20,2013-05-09 15:15:00
10:35 AM,50.0,41.0,71,30.05,10.0,North,9.2,-,N/A,,Mostly Cloudy,10,2013-05-09 15:35:00
10:55 AM,50.0,41.0,71,30.05,10.0,NNE,11.5,-,N/A,,Overcast,20,2013-05-09 15:55:00
11:15 AM,50.0,41.0,71,30.06,10.0,NE,13.8,-,N/A,,Overcast,40,2013-05-09 16:15:00
11:35 AM,50.0,41.0,71,30.06,10.0,NE,15.0,24.2,N/A,,Mostly Cloudy,40,2013-05-09 16:35:00
11:55 AM,50.0,41.0,71,30.06,10.0,NNE,19.6,23.0,N/A,,Scattered Clouds,30,2013-05-09 16:55:00
12:15 PM,50.0,39.2,66,30.06,10.0,NE,13.8,24.2,N/A,,Mostly Cloudy,50,2013-05-09 17:15:00
12:35 PM,50.0,39.2,66,30.07,10.0,NNE,15.0,23.0,N/A,,Overcast,30,2013-05-09 17:35:00
12:55 PM,48.2,37.4,66,30.07,10.0,NNE,15.0,-,N/A,,Overcast,30,2013-05-09 17:55:00
1:15 PM,46.4,37.4,71,30.07,10.0,NNE,15.0,-,N/A,Rain,Light Rain,30,2013-05-09 18:15:00
1:35 PM,46.4,41.0,81,30.08,10.0,NNE,11.5,-,N/A,Rain,Light Rain,30,2013-05-09 18:35:00
1:55 PM,44.6,41.0,87,30.08,10.0,NNE,9.2,17.3,N/A,Rain,Light Rain,30,2013-05-09 18:55:00
2:15 PM,44.6,41.0,87,30.08,10.0,NNE,8.1,-,N/A,Rain,Light Rain,20,2013-05-09 19:15:00
2:35 PM,42.8,41.0,93,30.09,10.0,NNE,12.7,17.3,0.01,Rain,Light Rain,30,2013-05-09 19:35:00
2:55 PM,42.8,41.0,93,30.08,10.0,NNE,11.5,-,0.02,Rain,Rain,30,2013-05-09 19:55:00
3:15 PM,41.0,41.0,100,30.08,7.0,NNE,9.2,-,0.01,Rain,Rain,30,2013-05-09 20:15:00
3:35 PM,41.0,41.0,100,30.09,7.0,NNE,12.7,-,0.03,Rain,Rain,30,2013-05-09 20:35:00
3:55 PM,39.2,39.2,100,30.09,7.0,NE,12.7,18.4,0.05,Rain,Rain,40,2013-05-09 20:55:00
4:15 PM,37.4,37.4,100,30.10,7.0,NE,10.4,24.2,0.02,Rain,Rain,50,2013-05-09 21:15:00
4:35 PM,37.4,37.4,100,30.10,4.0,NNE,10.4,-,0.06,Rain,Heavy Rain,30,2013-05-09 21:35:00
4:55 PM,35.6,35.6,100,30.10,4.0,NNE,9.2,-,0.09,Rain,Rain,20,2013-05-09 21:55:00
5:15 PM,35.6,35.6,100,30.10,5.0,NNE,13.8,-,0.03,Rain,Rain,30,2013-05-09 22:15:00
5:35 PM,35.6,35.6,100,30.10,2.5,NNE,12.7,20.7,0.06,Rain,Light Rain,30,2013-05-09 22:35:00
5:55 PM,35.6,35.6,100,30.10,4.0,NNE,11.5,-,0.08,Rain,Rain,20,2013-05-09 22:55:00
6:15 PM,33.8,33.8,100,30.10,4.0,NNE,13.8,19.6,0.02,Rain,Rain,30,2013-05-09 23:15:00
6:35 PM,33.8,33.8,100,30.10,5.0,NNE,11.5,-,0.04,Rain,Rain,30,2013-05-09 23:35:00
6:55 PM,33.8,33.8,100,30.10,3.0,NNE,11.5,16.1,0.06,Rain,Rain,30,2013-05-09 23:55:00
7:35 PM,33.8,33.8,100,30.10,7.0,NE,17.3,25.3,0.04,Rain,Light Rain,40,2013-05-10 00:35:00
7:55 PM,33.8,33.8,100,30.11,10.0,NE,11.5,-,0.05,Rain,Light Rain,50,2013-05-10 00:55:00
8:15 PM,33.8,33.8,100,30.11,10.0,NE,12.7,21.9,N/A,Rain,Light Rain,40,2013-05-10 01:15:00
8:35 PM,33.8,33.8,100,30.11,10.0,NE,12.7,17.3,0.01,Rain,Light Rain,40,2013-05-10 01:35:00
8:55 PM,33.8,33.8,100,30.12,10.0,NE,12.7,-,0.02,Rain,Light Rain,40,2013-05-10 01:55:00
9:15 PM,33.8,33.8,100,30.11,10.0,NE,13.8,-,0.01,Rain,Light Rain,50,2013-05-10 02:15:00
9:35 PM,33.8,32.0,93,30.12,10.0,NE,11.5,20.7,0.02,Rain,Rain,40,2013-05-10 02:35:00
9:55 PM,33.8,32.0,93,30.11,10.0,NE,11.5,-,0.02,Rain,Light Rain,40,2013-05-10 02:55:00
10:15 PM,33.8,32.0,93,30.11,10.0,NE,11.5,-,N/A,,Light Drizzle,40,2013-05-10 03:15:00
10:35 PM,33.8,32.0,93,30.11,10.0,NNE,10.4,-,0.01,Rain,Light Rain,30,2013-05-10 03:35:00
11:55 PM,33.8,32.0,93,30.11,10.0,NNE,10.4,-,N/A,,Overcast,30,2013-05-10 04:55:00